Wind_Speed
15 12 11 10 10 7 9 11 14 14 14 17 17 15 13 11 9 8 9 8 9 10 7 13 15 12 11 10 10 11 8 9 10 10 10 10 8 9 9 10 10 11 9 8 8 8 8 8 9
14 11 11 10 9 10 11 11 13 12 13 17 18 18 18 17 13 11 9 10 10 10 11 14 12 10 9 8 7 6 6 10 10 9 10 9 7 7 7 6 6 6 6 5 5 6 6 7 7
15 14 12 12 9 12 13 13 13 13 11 15 16 16 16 16 16 17 16 14 13 11 10 12 13 15 14 12 9 10 7 8 7 6 6 7 8 9 7 5 4 5 5 6 7 7 8 8 8
17 16 13 13 9 11 11 12 12 14 14 15 15 13 13 13 14 14 15 15 16 15 14 14 11 12 14 14 14 14 13 10 9 7 4 4 3 2 2 3 4 4 5 6 6 6 6 6 7
18 16 14 12 9 9 10 10 11 10 11 12 15 14 14 12 11 11 12 13 14 14 14 15 16 15 14 12 11 11 11 10 9 8 7 6 4 2 2 2 3 3 4 4 5 5 6 7 8
17 15 13 11 8 7 8 10 11 10 9 9 10 12 11 12 12 11 9 10 11 11 12 12 13 13 13 14 13 11 10 8 7 5 4 3 1 0 1 3 3 4 6 7 7 8 9 10 10
17 15 13 11 7 7 6 8 10 10 9 9 7 8 8 8 8 8 8 9 9 10 10 10 11 10 10 10 9 9 8 6 5 5 4 3 2 2 3 3 4 5 6 7 6 6 6 6 8
18 15 13 12 9 7 6 5 7 8 7 7 7 6 5 5 5 5 6 6 6 7 8 8 9 9 8 7 6 6 5 5 5 4 4 5 5 6 6 6 6 6 7 8 8 8 9 9 10
19 16 12 11 10 8 6 4 4 5 5 3 5 4 5 4 3 3 5 6 7 7 7 7 7 6 6 5 6 5 4 4 4 5 5 6 6 6 7 7 8 8 9 10 10 11 13 13 14
19 16 13 11 9 8 6 4 4 3 3 2 1 2 3 3 3 3 4 4 6 7 7 7 6 6 5 5 5 4 3 4 4 5 6 7 7 8 9 9 10 10 11 12 13 14 15 17 18
19 18 15 13 12 10 9 7 6 5 3 3 3 1 2 1 1 1 2 3 5 5 5 5 5 5 5 4 4 4 4 4 6 8 7 8 9 10 11 11 12 13 14 15 16 17 18 19 21
21 18 16 15 14 11 10 10 9 9 7 5 5 4 3 2 1 1 1 1 2 2 3 3 4 5 4 5 5 5 5 6 8 10 10 11 12 11 12 13 14 15 17 17 18 20 21 22 22
23 20 18 17 16 16 14 13 12 13 10 8 7 8 5 5 5 4 3 2 1 1 3 4 4 5 5 6 5 6 7 7 8 11 12 13 15 15 15 16 17 18 19 20 21 21 21 22 22
26 25 23 21 21 19 18 17 15 19 12 13 11 9 9 7 8 8 6 6 5 3 1 2 4 5 6 6 6 6 8 9 10 12 14 16 17 18 18 19 20 20 21 22 22 23 23 23 23
30 28 26 25 24 22 22 20 21 20 18 18 15 13 11 12 12 11 10 10 8 7 6 6 7 7 9 9 9 9 10 11 11 11 14 16 17 18 21 21 22 23 25 26 26 27 27 27 27
32 30 28 26 28 26 25 22 24 25 23 20 19 18 15 15 15 15 15 14 13 12 12 10 10 11 11 11 10 10 11 12 12 11 12 16 18 20 22 23 24 25 27 29 30 31 31 30 30
33 29 30 30 30 28 26 23 26 26 25 23 23 21 19 19 19 20 18 18 17 16 16 15 14 14 14 13 12 12 13 13 14 14 13 15 17 20 21 24 25 26 28 29 31 31 32 32 32
30 31 33 30 30 29 27 24 26 26 25 25 25 25 24 22 22 22 20 21 20 19 18 18 18 18 18 17 15 15 16 16 16 17 17 17 20 21 22 24 25 25 27 30 31 31 32 33 34
36 34 32 32 31 32 30 27 26 27 25 27 27 26 26 26 27 24 25 26 23 22 22 21 21 22 21 20 19 19 19 19 19 20 21 19 21 24 24 25 26 28 29 29 31 33 33 34 34
34 34 32 32 32 33 32 27 27 29 27 27 27 29 30 29 29 29 28 27 26 26 26 25 25 23 24 23 24 22 23 22 24 25 26 26 25 24 25 26 27 28 30 32 34 35 36 38 38
33 32 32 32 33 33 32 29 27 30 28 29 28 30 32 32 30 31 30 29 30 30 32 31 28 27 27 27 28 28 28 27 27 29 30 31 31 29 29 28 27 29 31 33 35 38 40 42 43
34 33 33 33 35 35 32 31 25 27 28 30 31 30 31 32 33 33 33 33 32 34 34 34 33 31 32 32 31 33 34 32 33 34 34 35 36 36 35 34 33 33 34 35 36 38 40 42 44
35 35 35 35 36 35 32 35 30 28 29 30 31 32 32 33 34 35 35 35 35 36 37 38 38 37 37 38 37 37 38 38 38 39 39 40 41 41 40 39 39 39 39 39 40 42 44 46 47
38 37 37 36 36 36 34 35 35 33 31 30 32 33 34 34 35 37 38 38 38 39 40 41 42 42 42 42 43 43 43 43 43 44 45 45 45 46 45 44 45 46 44 44 45 45 46 47 49
42 41 40 39 39 38 38 37 37 38 35 35 35 36 37 38 40 41 41 41 42 43 44 45 45 46 47 48 48 48 48 48 48 48 49 50 50 49 49 50 50 50 50 50 50 50 49 49 51
45 44 44 45 44 43 43 41 41 42 41 39 40 41 41 41 42 43 44 45 46 47 48 49 50 50 52 51 53 53 54 54 54 54 53 51 51 53 53 54 54 54 55 55 55 54 52 52 54
50 50 47 49 49 49 47 46 46 46 47 47 45 44 45 45 45 46 47 48 50 50 51 51 52 52 54 54 55 56 57 58 57 57 56 53 53 55 56 57 57 57 58 58 58 58 58 59 60
54 52 51 53 54 54 53 52 52 50 52 53 54 51 50 50 51 51 51 51 52 52 53 55 56 56 56 57 57 56 56 57 56 56 55 56 56 57 58 57 57 57 56 58 62 62 62 63 65
55 56 56 56 56 57 57 56 55 56 55 55 55 55 54 51 51 52 53 54 54 54 53 55 57 57 57 56 57 56 56 56 56 55 55 56 55 55 54 53 53 53 54 57 62 64 66 68 69
53 54 54 55 55 55 55 56 56 56 57 56 53 53 52 50 50 50 51 53 55 55 56 56 57 56 57 58 58 58 60 61 62 63 61 59 57 57 56 56 55 55 55 59 64 69 72 68 66
Wind_Direction
155 155 140 137 128 122 105 97 90 84 85 81 76 72 72 71 72 80 96 101 84 84 101 119 163 170 170 175 191 172 179 202 205 208 215 227 237 258 257 262 274 277 278 280 285 277 280 283 279
153 151 137 140 141 115 101 91 91 96 87 82 80 76 74 75 75 72 81 90 88 89 93 90 102 132 142 146 162 154 195 212 215 216 229 229 248 240 252 262 270 264 274 283 274 272 273 273 273
155 148 146 147 129 115 103 92 81 85 85 85 83 80 78 76 75 73 72 77 84 86 93 94 96 99 101 105 108 111 135 164 176 193 219 231 226 245 256 257 239 247 251 251 254 257 268 271 273
156 151 151 144 142 122 107 100 89 81 88 83 85 83 84 79 79 76 79 76 76 79 79 86 89 90 92 95 92 88 92 98 106 116 123 136 158 158 192 223 232 235 239 245 255 264 272 279 278
157 152 150 154 146 129 118 103 99 94 90 86 87 85 78 82 80 80 78 82 80 79 76 75 81 83 85 89 94 97 98 97 100 103 104 101 107 134 156 206 235 242 251 248 252 268 273 276 278
158 151 156 155 147 148 130 114 99 100 97 91 85 85 81 80 76 77 75 77 80 80 78 76 73 71 71 72 72 75 79 85 92 99 93 86 79 201 260 260 269 278 276 276 275 274 276 282 285
157 155 154 143 165 167 153 125 106 97 84 88 84 86 84 80 76 79 76 74 79 82 82 84 81 78 71 69 64 64 63 57 52 46 41 25 345 302 291 288 288 286 286 285 284 284 287 290 285
164 162 163 153 162 174 162 139 122 105 85 78 87 84 86 78 74 68 79 88 84 81 79 76 78 77 76 70 65 54 41 28 14 359 342 321 311 313 310 310 306 305 300 293 293 294 291 291 294
172 174 172 166 169 170 177 144 139 134 116 80 76 80 86 93 94 80 83 92 90 89 82 80 74 72 67 58 52 46 32 5 335 327 324 306 301 298 294 294 295 295 293 291 291 289 292 296 296
177 180 178 187 188 176 187 176 194 162 164 151 34 47 50 70 86 95 87 75 86 87 78 73 66 57 51 41 34 21 6 346 332 314 313 308 299 289 283 287 288 290 291 293 293 293 295 296 297
189 191 191 196 198 198 198 211 216 210 208 210 226 286 345 31 91 81 107 101 88 80 76 68 56 49 39 23 11 359 345 319 306 299 302 302 302 291 288 288 288 289 291 291 292 293 294 296 299
205 204 204 208 219 221 224 219 221 233 228 226 248 239 259 226 205 235 153 119 104 96 82 74 68 55 41 22 9 352 336 321 312 300 299 295 294 290 289 285 286 288 289 290 291 293 295 296 297
211 220 219 225 226 233 235 239 238 239 235 237 241 250 231 248 235 235 238 226 221 51 63 75 63 53 40 31 18 9 354 338 312 297 295 291 288 287 286 286 285 285 285 288 291 294 295 296 299
216 224 230 231 237 237 239 243 242 250 237 242 244 253 254 237 239 242 233 246 241 252 286 336 337 341 346 346 339 343 345 338 329 310 304 298 292 289 287 286 284 286 287 287 288 290 293 295 297
222 226 233 238 242 244 244 244 243 252 243 240 237 242 247 254 247 243 240 242 244 252 270 290 299 307 316 323 324 323 324 324 324 312 305 300 297 293 289 286 284 283 283 284 284 285 288 290 292
227 231 237 242 247 248 251 249 248 250 246 245 241 235 238 242 251 244 244 243 244 247 258 268 274 283 291 297 295 299 308 313 322 324 303 309 305 298 295 293 289 285 282 282 282 284 285 288 290
229 233 239 240 247 250 251 249 253 249 251 248 249 243 242 243 242 247 242 247 246 248 256 265 272 278 283 288 283 290 296 301 310 310 313 309 311 309 303 298 296 292 289 286 284 284 285 284 283
235 235 238 241 245 249 251 246 248 254 251 251 246 247 243 245 250 248 248 246 246 247 255 263 271 277 281 287 285 284 290 290 298 299 304 308 309 309 309 304 299 296 290 289 291 289 287 285 285
230 234 238 242 246 248 249 247 251 253 253 252 251 249 247 244 246 248 247 246 246 251 255 260 267 271 283 282 284 285 287 287 287 291 294 296 304 308 308 306 303 297 296 296 294 293 292 291 289
233 237 240 243 246 249 250 247 252 256 254 253 252 252 247 247 251 253 252 255 254 253 255 257 260 268 276 279 280 284 284 285 283 287 289 292 295 299 303 304 303 299 296 296 294 293 291 289 289
237 239 243 245 246 248 249 248 249 254 255 256 250 247 250 250 250 251 253 253 253 252 253 256 260 266 268 270 275 280 283 283 280 281 287 291 293 295 296 299 300 300 297 297 296 295 295 294 293
237 240 242 245 248 250 251 251 247 251 251 252 254 253 251 252 254 254 255 255 254 255 257 260 261 262 264 268 270 275 281 282 282 285 287 290 292 293 295 296 297 296 297 298 295 295 294 293 293
240 240 242 244 248 250 252 257 246 245 248 251 252 254 253 252 252 254 257 257 257 258 257 259 262 263 265 268 272 274 278 281 283 285 285 287 288 289 292 293 292 292 293 294 294 293 292 293 291
239 242 244 245 248 251 251 254 255 251 249 247 250 253 254 253 251 253 255 257 258 259 258 258 260 262 264 268 271 272 275 277 281 283 284 285 285 287 289 290 290 291 291 289 287 285 286 287 289
244 245 247 249 249 251 250 250 255 259 254 253 250 249 249 253 255 255 256 257 259 258 258 259 260 263 266 269 272 275 276 277 278 279 279 280 282 283 285 285 287 288 288 287 285 286 285 286 288
245 247 248 250 250 250 253 254 253 258 259 255 254 253 251 251 253 256 259 260 260 259 261 263 264 266 268 270 272 273 274 274 276 275 275 275 274 275 278 280 283 284 285 287 287 288 287 288 288
243 245 248 249 251 251 252 254 256 258 263 263 259 258 259 257 256 256 257 257 257 259 260 262 264 266 267 268 269 270 273 275 276 277 276 273 272 274 275 277 278 280 283 283 283 283 284 286 288
244 245 245 247 249 252 254 254 256 259 259 261 264 262 259 258 260 262 263 263 263 261 261 262 263 263 265 267 269 270 270 273 274 276 276 275 276 276 276 276 275 277 278 279 278 281 283 286 287
244 245 247 248 249 251 252 254 255 258 259 262 265 269 269 266 263 264 266 268 269 269 268 267 267 269 270 272 274 275 277 277 277 275 273 273 274 275 276 275 275 274 275 277 276 279 283 286 286
243 245 245 246 249 250 252 252 256 258 259 261 260 263 264 268 269 266 265 266 267 269 270 273 273 273 273 274 274 275 275 276 276 275 275 276 276 276 276 276 275 276 275 275 276 278 281 285 286
Height
5846 5850 5850 5853 5856 5856 5855 5855 5854 5855 5856 5853 5852 5852 5851 5851 5851 5853 5850 5849 5847 5846 5846 5845 5846 5849 5851 5852 5853 5854 5856 5857 5859 5860 5862 5863 5864 5865 5866 5867 5868 5868 5868 5867 5867 5866 5865 5865 5865
5848 5851 5852 5853 5856 5855 5856 5856 5855 5856 5857 5854 5853 5853 5854 5854 5854 5853 5852 5851 5850 5850 5849 5848 5848 5850 5851 5852 5854 5855 5856 5857 5859 5860 5861 5862 5864 5865 5866 5866 5867 5867 5867 5866 5866 5865 5864 5864 5864
5849 5851 5855 5854 5856 5856 5857 5857 5857 5857 5858 5856 5855 5856 5856 5857 5857 5856 5855 5855 5853 5853 5853 5852 5852 5852 5852 5853 5854 5855 5856 5858 5859 5860 5862 5863 5864 5864 5865 5866 5866 5866 5865 5865 5865 5864 5864 5863 5862
5848 5852 5855 5854 5857 5857 5857 5858 5859 5859 5859 5859 5858 5859 5860 5859 5859 5859 5859 5858 5857 5857 5856 5855 5855 5855 5855 5856 5856 5857 5858 5859 5860 5861 5862 5863 5864 5864 5865 5866 5866 5865 5865 5865 5863 5863 5862 5862 5861
5849 5852 5854 5855 5857 5858 5858 5859 5859 5860 5860 5860 5860 5861 5861 5861 5861 5862 5862 5861 5860 5860 5860 5859 5858 5858 5858 5859 5859 5860 5860 5861 5862 5863 5864 5864 5864 5865 5865 5866 5866 5865 5865 5864 5862 5862 5862 5861 5860
5849 5852 5855 5856 5857 5859 5859 5860 5860 5860 5861 5861 5862 5862 5863 5863 5863 5863 5863 5862 5862 5862 5862 5861 5861 5860 5860 5860 5861 5861 5862 5863 5863 5864 5863 5864 5864 5864 5865 5865 5864 5864 5864 5863 5861 5861 5861 5860 5859
5849 5852 5855 5856 5858 5860 5860 5861 5861 5861 5861 5862 5863 5863 5864 5864 5865 5865 5865 5864 5864 5864 5864 5864 5863 5863 5863 5863 5863 5863 5863 5864 5863 5863 5864 5864 5864 5864 5865 5864 5864 5863 5862 5862 5860 5859 5859 5858 5857
5848 5851 5854 5856 5858 5861 5860 5860 5862 5861 5862 5863 5864 5864 5865 5865 5865 5865 5866 5866 5866 5865 5864 5864 5864 5864 5864 5865 5865 5865 5864 5864 5864 5864 5864 5864 5864 5864 5864 5864 5863 5862 5861 5861 5860 5859 5858 5857 5857
5847 5850 5853 5855 5858 5860 5861 5860 5861 5861 5863 5863 5865 5866 5866 5866 5866 5866 5866 5866 5866 5866 5865 5865 5865 5866 5865 5865 5865 5866 5865 5866 5866 5865 5865 5865 5864 5863 5863 5863 5862 5861 5860 5859 5859 5858 5857 5856 5855
5847 5849 5853 5855 5857 5858 5861 5861 5862 5862 5862 5864 5865 5867 5868 5868 5868 5868 5867 5867 5867 5866 5866 5866 5866 5866 5866 5866 5865 5866 5865 5865 5865 5865 5865 5864 5863 5862 5861 5861 5860 5859 5858 5858 5857 5856 5855 5854 5852
5846 5848 5851 5853 5855 5856 5858 5860 5862 5862 5863 5862 5864 5866 5867 5868 5868 5868 5868 5868 5868 5867 5866 5866 5866 5866 5866 5866 5866 5865 5865 5865 5864 5863 5863 5862 5862 5861 5860 5859 5858 5858 5857 5856 5855 5854 5853 5851 5850
5845 5846 5850 5852 5853 5855 5857 5859 5860 5862 5863 5863 5864 5865 5866 5867 5868 5869 5869 5869 5868 5867 5867 5866 5866 5866 5866 5865 5865 5864 5864 5863 5862 5861 5861 5861 5860 5859 5858 5858 5857 5856 5855 5854 5852 5851 5850 5848 5847
5841 5845 5846 5850 5851 5853 5855 5857 5858 5860 5862 5863 5862 5863 5864 5866 5867 5868 5868 5868 5868 5868 5867 5867 5866 5866 5865 5865 5864 5863 5863 5862 5861 5860 5859 5859 5858 5857 5856 5855 5854 5853 5852 5851 5849 5848 5847 5845 5844
5836 5841 5844 5846 5849 5851 5853 5855 5856 5857 5861 5862 5862 5862 5862 5863 5864 5866 5867 5867 5867 5867 5866 5866 5865 5865 5865 5864 5863 5862 5862 5861 5860 5858 5857 5856 5855 5854 5853 5852 5851 5850 5849 5847 5846 5844 5843 5841 5840
5832 5837 5839 5842 5845 5848 5850 5851 5853 5854 5857 5859 5861 5860 5860 5861 5863 5864 5864 5865 5865 5866 5866 5865 5865 5864 5863 5863 5862 5860 5860 5859 5859 5857 5854 5853 5852 5850 5849 5848 5846 5845 5844 5842 5841 5840 5838 5837 5836
5829 5833 5836 5838 5840 5843 5846 5848 5848 5850 5853 5856 5859 5859 5858 5859 5860 5861 5862 5862 5863 5863 5863 5863 5862 5862 5861 5860 5860 5859 5858 5857 5856 5854 5852 5850 5848 5847 5845 5844 5842 5841 5839 5837 5836 5835 5833 5832 5830
5825 5829 5832 5833 5835 5838 5841 5844 5844 5846 5849 5852 5854 5856 5856 5856 5855 5856 5859 5859 5860 5860 5860 5859 5859 5859 5858 5857 5857 5856 5855 5854 5852 5851 5849 5847 5845 5842 5841 5839 5838 5837 5834 5832 5831 5829 5828 5826 5824
5821 5822 5824 5828 5831 5833 5836 5839 5839 5841 5844 5847 5848 5850 5852 5852 5852 5853 5855 5856 5856 5857 5857 5856 5856 5854 5854 5854 5853 5853 5852 5851 5849 5848 5846 5844 5842 5839 5837 5835 5833 5831 5829 5827 5825 5824 5823 5821 5819
5812 5816 5820 5822 5825 5827 5830 5834 5834 5835 5840 5841 5843 5845 5847 5847 5845 5848 5848 5849 5852 5853 5853 5853 5852 5850 5850 5850 5850 5849 5848 5847 5846 5844 5842 5840 5838 5835 5833 5831 5828 5826 5824 5822 5820 5817 5816 5815 5812
5808 5812 5815 5817 5819 5821 5824 5829 5830 5830 5833 5836 5837 5839 5840 5841 5842 5842 5844 5846 5848 5848 5848 5847 5846 5847 5846 5845 5844 5844 5843 5843 5840 5838 5837 5835 5834 5832 5829 5826 5823 5821 5818 5816 5813 5810 5808 5806 5804
5803 5806 5809 5811 5812 5815 5818 5823 5824 5826 5828 5829 5831 5832 5833 5835 5837 5837 5838 5840 5841 5841 5840 5841 5842 5842 5841 5840 5839 5838 5838 5837 5835 5832 5830 5828 5827 5825 5823 5820 5818 5814 5812 5810 5807 5804 5801 5798 5797
5796 5799 5801 5803 5806 5809 5812 5815 5820 5821 5822 5822 5823 5827 5828 5829 5830 5831 5832 5832 5834 5834 5835 5835 5836 5836 5835 5834 5834 5832 5830 5830 5827 5826 5825 5822 5819 5816 5815 5813 5811 5809 5806 5803 5800 5796 5794 5791 5788
5790 5791 5794 5797 5799 5803 5807 5807 5814 5816 5815 5816 5817 5819 5820 5822 5823 5824 5824 5825 5826 5827 5827 5827 5828 5828 5826 5826 5826 5825 5823 5822 5820 5818 5816 5814 5811 5809 5807 5805 5802 5800 5798 5795 5792 5788 5784 5781 5778
5781 5785 5787 5789 5792 5796 5800 5802 5804 5807 5809 5811 5811 5812 5813 5814 5815 5815 5816 5817 5818 5818 5818 5819 5819 5819 5818 5818 5817 5817 5815 5813 5812 5810 5808 5805 5803 5800 5798 5796 5792 5790 5788 5785 5782 5779 5775 5771 5767
5773 5776 5778 5782 5785 5789 5790 5794 5796 5795 5800 5802 5803 5804 5805 5805 5805 5806 5808 5810 5810 5809 5809 5808 5809 5809 5809 5809 5808 5807 5805 5804 5802 5800 5798 5795 5793 5791 5787 5784 5782 5779 5776 5772 5770 5767 5764 5760 5756
5763 5766 5770 5771 5775 5780 5781 5785 5788 5786 5788 5791 5793 5793 5794 5797 5798 5799 5800 5799 5799 5800 5800 5800 5800 5799 5799 5799 5798 5796 5794 5793 5791 5788 5786 5785 5782 5779 5776 5773 5771 5768 5764 5760 5758 5755 5751 5747 5744
5753 5755 5760 5762 5765 5769 5773 5776 5777 5778 5777 5778 5782 5784 5786 5787 5788 5789 5789 5790 5789 5789 5789 5789 5789 5789 5787 5787 5785 5783 5781 5779 5777 5774 5773 5771 5769 5767 5764 5761 5759 5756 5753 5749 5745 5742 5738 5735 5731
5742 5746 5747 5749 5754 5758 5763 5766 5767 5767 5766 5767 5767 5770 5773 5775 5775 5776 5777 5778 5778 5778 5778 5777 5776 5774 5773 5772 5771 5770 5768 5767 5765 5763 5761 5758 5756 5753 5750 5748 5746 5743 5740 5736 5732 5728 5725 5722 5718
5730 5733 5736 5740 5743 5746 5750 5755 5758 5755 5757 5756 5755 5755 5758 5762 5763 5763 5764 5764 5764 5765 5765 5764 5763 5762 5762 5761 5760 5757 5755 5752 5750 5748 5745 5743 5741 5738 5736 5733 5731 5728 5725 5721 5718 5715 5710 5707 5703
5717 5722 5724 5725 5732 5734 5739 5744 5744 5745 5744 5743 5747 5747 5747 5747 5748 5750 5751 5751 5751 5751 5751 5750 5750 5749 5748 5747 5745 5743 5740 5738 5736 5734 5731 5728 5726 5724 5721 5719 5716 5714 5711 5707 5704 5700 5696 5692 5689